Content
SEND FEEDBACK

Daily
Averages
Monthly
Summary
Thailand

PHUKET, THAILAND


Home > Asia > Thailand
Elevation: 10 meters     Latitude: 08 07N     Longitude: 098 19E

WEATHER
 
SELECT A DAY
Number of Records: 233,233;   Date Range: 7/1/96 - 10/23/14
 
SHARE

PRINT THIS DATA

[ ← Previous Day ]
WEATHER ALMANAC - 4 FEBRUARY, 2013
[ Next Day → ]
[ °F ]   °C
Weather ElementAverageHighLow
Temperature28.7 °C35 °C (3:00 pm)23.9 °C (7:00 am)
Dewpoint21.6 °C24 °C (4:00 pm)19 °C (2:30 pm)
Humidity67.4 %91 % (7:00 am)39 % (3:00 pm)
Barometer1011.5 hPa1013.2 hPa (8:00 am)1009.1 hPa (3:00 pm)
Wind Speed11.6 km/h31.5 km/h (11:00 am)
Weather ElementAverage
Visibility9.8 km
Wind DirectionENE (66.2 °)

Weather ElementTotal
Precipitation---
Cooling Degree Days11.1 (Base 18.3)
Growing Degree Days19.4 (Base 10)
Averaged from 41 records on 4 February, 2013
WEATHER CONDITIONS BREAKOUT
WIND DIRECTION BREAKOUT
WEATHER BY HOUR - 4 FEBRUARY, 2013
[ °F ]   °C
Local TimeTemperatureDewpointHumidityBarometerVisibilityWind DirectionWind SpeedGust SpeedPrecipitationEventsConditions
12:30 AM27 °C21 °C70 %1012.2 hPa10 kmENE (60°)7.4 km/hScattered Clouds
1:00 AM25 °C22.8 °C84 %1011.2 hPa9.7 kmCalmScattered Clouds
1:00 AM27 °C21 °C70 %1012.2 hPa10 kmCalmScattered Clouds
1:30 AM25 °C22 °C83 %1012.2 hPa10 kmCalmScattered Clouds
2:30 AM25 °C22 °C83 %1012.2 hPa10 kmCalmScattered Clouds
4:00 AM24 °C22 °C89 %1011.2 hPa10 kmCalmScattered Clouds
4:30 AM24 °C22 °C89 %1011.2 hPa10 kmCalmScattered Clouds
5:00 AM24 °C22 °C89 %1011.2 hPa10 kmCalmScattered Clouds
6:00 AM24 °C22 °C89 %1012.2 hPa10 kmCalmScattered Clouds
6:30 AM24 °C22 °C89 %1012.2 hPa10 kmCalmScattered Clouds
7:00 AM24 °C22 °C89 %1012.2 hPa10 kmCalmMostly Cloudy
7:00 AM23.9 °C22.8 °C91 %1011.5 hPa9.7 kmCalmScattered Clouds
7:30 AM25 °C23 °C89 %1012.2 hPa10 kmCalmMostly Cloudy
8:00 AM26 °C22 °C78 %1013.2 hPa10 kmENE (60°)9.3 km/hMostly Cloudy
9:30 AM29 °C22 °C66 %1013.2 hPa10 kmEast (90°)16.7 km/hScattered Clouds
10:00 AM30 °C22 °C62 %1013.2 hPa10 kmEast (80°)20.4 km/hPartly Cloudy
10:30 AM31 °C22 °C58 %1013.2 hPa10 kmEast (80°)25.9 km/hScattered Clouds
11:00 AM32 °C21 °C52 %1012.2 hPa10 kmEast (90°)31.5 km/hScattered Clouds
11:30 AM32 °C21 °C52 %1012.2 hPa10 kmEast (80°)29.6 km/hScattered Clouds
12:00 PM32 °C21 °C52 %1012.2 hPa10 kmEast (80°)24.1 km/hScattered Clouds
12:30 PM33 °C20 °C46 %1011.2 hPa10 kmEast (90°)25.9 km/hScattered Clouds
1:00 PM32.8 °C22.2 °C44 %1010.8 hPa9.7 kmEast (90°)20.4 km/hScattered Clouds
1:00 PM34 °C20 °C44 %1011.2 hPa10 kmEast (80°)20.4 km/hScattered Clouds
1:30 PM24 °C20 °C78 %1011.2 hPa10 kmEast (90°)25.9 km/hScattered Clouds
2:00 PM34 °C20 °C44 %1010.2 hPa10 kmENE (60°)24.1 km/hScattered Clouds
2:30 PM34 °C19 °C41 %1010.2 hPa10 kmEast (90°)16.7 km/hScattered Clouds
3:00 PM35 °C19 °C39 %1009.1 hPa10 kmEast (90°)20.4 km/hScattered Clouds
3:30 PM35 °C19 °C39 %1009.1 hPa10 kmEast (80°)22.2 km/hScattered Clouds
4:00 PM32 °C24 °C62 %1009.1 hPa10 kmWNW (300°)13 km/hScattered Clouds
6:00 PM30 °C24 °C70 %1010.2 hPa10 kmWest (280°)7.4 km/hScattered Clouds
6:30 PM29 °C23 °C70 %1010.2 hPa10 kmCalmMostly Cloudy
7:00 PM28 °C24 °C79 %1010.2 hPa10 kmCalmMostly Cloudy
7:30 PM28 °C24 °C79 %1011.2 hPa10 kmCalmScattered Clouds
8:00 PM28 °C23 °C74 %1011.2 hPa10 kmENE (70°)7.4 km/hScattered Clouds
8:30 PM29 °C21 °C62 %1012.2 hPa10 kmENE (70°)13 km/hScattered Clouds
9:00 PM30 °C21 °C58 %1012.2 hPa9 kmEast (100°)16.7 km/hScattered Clouds
9:30 PM30 °C21 °C58 %1013.2 hPa9 kmEast (100°)13 km/hScattered Clouds
10:00 PM29 °C21 °C62 %1013.2 hPa9 kmEast (80°)13 km/hScattered Clouds
10:30 PM29 °C21 °C62 %1013.2 hPa9 kmEast (90°)18.5 km/hScattered Clouds
11:00 PM29 °C21 °C62 %1013.2 hPa9 kmEast (100°)16.7 km/hScattered Clouds
11:30 PM28 °C21 °C66 %1013.2 hPa9 kmEast (100°)14.8 km/hScattered Clouds
Hourly data recorded from VTSP, located 0 kilometers away from Phuket, Thailand







STORIES FROM OUR PARTNERS